Location: Podia
(1.5569°N, 32.3469°E)
Time: 20:55:38
(UTC+00:00)

ARIANE 5 DEB (SYLDA) - Visible Passes

Search period start: 25 September 2020 00:00
Search period end: 05 October 2020 00:00
Orbit: 274 x 12185 km, 6.8° (Epoch: 24 September)

Date Brightness Start Highest point End Pass type
(mag) Time Alt. Az. Time Alt. Az. Time Alt. Az.
25 Sep 4.9 02:48:59 17° WSW 02:53:14 72° SSE 03:14:51 10° E visible
25 Sep 5.6 17:09:43 10° W 17:59:16 72° SSW 18:02:07 57° SE visible
26 Sep 4.2 02:17:36 36° SW 02:19:36 64° SSE 02:34:34 10° E visible
26 Sep 5.9 16:16:30 10° W 17:24:15 76° SSW 17:30:36 38° ESE visible
27 Sep 4.0 01:46:03 53° SSE 01:46:03 53° SSE 01:56:11 10° E visible
27 Sep 6.4 15:21:42 10° W 16:48:24 80° S 16:58:58 23° ESE visible
28 Sep 5.3 01:14:22 28° ESE 01:14:22 28° ESE 01:19:06 10° E visible
28 Sep 6.8 14:29:04 10° W 16:11:28 83° S 16:27:10 12° ESE visible
28 Sep 7.4 20:19:06 10° W 20:21:51 15° WSW 20:21:51 15° WSW visible
29 Sep 6.5 00:42:33 11° ESE 00:42:33 11° ESE 00:42:54 10° ESE visible
29 Sep 6.9 19:39:33 10° W 19:49:53 27° WSW 19:49:53 27° WSW visible
30 Sep 6.3 18:57:19 10° W 19:17:47 43° WSW 19:17:47 43° WSW visible
01 Oct 5.8 18:11:20 10° W 18:45:32 60° SSW 18:45:32 60° SSW visible
02 Oct 4.8 03:00:49 12° W 03:05:30 85° S 03:26:46 10° E visible
02 Oct 5.7 17:20:31 10° W 18:10:41 66° SSW 18:13:08 58° SSE visible
03 Oct 4.1 02:28:24 30° WSW 02:30:45 78° S 02:45:26 10° E visible
03 Oct 6.0 16:25:12 10° W 17:34:28 71° SSW 17:40:35 41° ESE visible
04 Oct 3.4 01:55:50 67° S 01:56:04 69° SSE 02:06:03 10° E visible
04 Oct 6.4 15:28:38 10° W 16:57:20 75° SSW 17:07:55 26° ESE visible
